Location: Ladrillo (historical)
(32.8195°N, 117.2231°W)
Time: 23:54:48
(UTC+00:00)

Altair - Pass Details

Date: 26 February 2021
Orbit: 1501 x 1683 km, 47.2° (Epoch: 16 April)

Event Time Altitude Azimuth Distance (km) Brightness Sun altitude
Rises 05:12:12 0° 266° (W) 4,649 10.7 -44.0°
Reaches altitude 10° 05:15:28 10° 273° (W) 3,684 10.0 -44.7°
Enters shadow 05:23:21 41° 330° (NNW) 2,127 8.3 -46.2°
